Date String (YYYY-MM-DD hh:mm:ss) UTC,Instrument flags,Ambient pressure (hPa),Sample flow (lpm),Bypass flow (lpm),Sample temperature (°C),Ambient temperature (°C),ASC tube jacket temperature (°C),LED temperature (°C),Box temperature (°C),Sample RH (%),Span deviation,Mass concentration (μg/m³),Mass concentration (μg/m³),Mass concentration (μg/m³)
DateTimeUTC,F1_M11,P_M11,Q1_M11,Q2_M11,T1_M11,T2_M11,T3_M11,T4_M11,T5_M11,U1_M11,ZSPAN_M11,X2_M11,X0_M11,X1_M11
2023-02-21 05:00:00,,0817.2,5.01,0.00,21.9,20.2,00.0,30.9,23.6,13.5,0000.0,0000.92,0001.76,0000.58
2023-02-21 05:01:00,,0817.1,5.00,0.00,21.9,20.1,00.0,30.9,23.5,13.7,0000.0,0000.90,0001.73,0000.58
2023-02-21 05:02:00,,0817.1,4.99,0.00,21.9,20.0,00.0,30.9,23.5,13.7,0000.0,0000.90,0001.72,0000.58
2023-02-21 05:03:00,,0816.9,5.00,0.00,21.8,20.0,00.0,30.9,23.4,13.7,0000.0,0000.94,0001.89,0000.58
2023-02-21 05:04:00,,0817.0,5.00,0.00,21.8,20.1,00.0,30.9,23.4,13.8,0000.0,0000.93,0001.86,0000.58
2023-02-21 05:05:00,,0816.9,5.00,0.00,21.8,20.1,00.0,30.8,23.3,13.8,0000.0,0000.94,0001.94,0000.57
2023-02-21 05:06:00,,0817.1,5.00,0.00,21.8,20.5,00.0,30.8,23.5,13.6,0000.0,0000.94,0002.02,0000.57
2023-02-21 05:07:00,,0816.9,5.03,0.00,21.9,21.7,00.0,30.7,23.8,13.5,0000.0,0000.92,0001.93,0000.57
2023-02-21 05:08:00,,0816.8,5.00,0.00,22.0,22.8,00.0,30.7,24.1,13.4,0000.0,0000.89,0001.81,0000.56
2023-02-21 05:09:00,,0816.8,5.02,0.00,22.2,22.7,00.0,30.8,24.2,13.4,0000.0,0000.89,0001.85,0000.53
2023-02-21 05:10:00,,0816.8,4.99,0.00,22.2,22.2,00.0,30.9,24.1,13.4,0000.0,0000.89,0001.86,0000.54
2023-02-21 05:11:00,,0816.6,5.00,0.00,22.2,21.8,00.0,30.9,24.0,13.3,0000.0,0000.86,0001.71,0000.53
2023-02-21 05:12:00,,0816.8,5.01,0.00,22.2,21.5,00.0,30.9,24.0,13.2,0000.0,0000.86,0001.71,0000.53
2023-02-21 05:13:00,,0816.7,5.01,0.00,22.2,21.3,00.0,31.0,23.9,13.2,0000.0,0000.85,0001.67,0000.52
2023-02-21 05:14:00,,0816.8,5.01,0.00,22.1,21.1,00.0,31.0,23.8,13.1,0000.0,0000.81,0001.54,0000.51
2023-02-21 05:15:00,,0816.7,5.00,0.00,22.1,20.9,00.0,31.0,23.8,13.0,0000.0,0000.83,0001.60,0000.52
2023-02-21 05:16:00,,0816.8,5.01,0.00,22.1,20.8,00.0,31.0,23.8,13.1,0000.0,0000.84,0001.88,0000.52
2023-02-21 05:17:00,,0816.8,5.00,0.00,22.1,20.7,00.0,31.0,23.7,13.2,0000.0,0000.84,0001.93,0000.52
2023-02-21 05:18:00,,0816.9,5.00,0.00,22.1,20.6,00.0,31.0,23.7,13.3,0000.0,0000.85,0001.95,0000.52
2023-02-21 05:19:00,,0816.7,4.99,0.00,22.0,20.5,00.0,31.0,23.6,13.3,0000.0,0000.89,0002.04,0000.52
2023-02-21 05:20:00,,0816.7,5.00,0.00,22.0,20.4,00.0,31.0,23.6,13.4,0000.0,0000.89,0002.07,0000.52
2023-02-21 05:21:00,,0816.4,5.01,0.00,21.9,20.3,00.0,31.0,23.5,13.5,0000.0,0000.87,0002.03,0000.51
2023-02-21 05:22:00,,0816.4,5.00,0.00,21.9,20.2,00.0,30.9,23.5,13.4,0000.0,0000.89,0002.11,0000.52
2023-02-21 05:23:00,,0816.4,5.00,0.00,21.9,20.1,00.0,30.9,23.5,13.5,0000.0,0000.96,0002.28,0000.52
2023-02-21 05:24:00,,0816.4,5.01,0.00,21.9,20.0,00.0,30.9,23.5,13.3,0000.0,0000.98,0002.39,0000.51
2023-02-21 05:25:00,,0816.4,4.99,0.00,21.8,20.0,00.0,30.9,23.5,13.5,0000.0,0001.00,0002.50,0000.51
2023-02-21 05:26:00,,0816.3,5.00,0.00,21.8,19.9,00.0,30.9,23.4,13.5,0000.0,0001.01,0002.51,0000.50
2023-02-21 05:27:00,,0816.2,5.01,0.00,21.8,19.8,00.0,30.8,23.4,13.3,0000.0,0001.00,0002.21,0000.49
2023-02-21 05:28:00,,0816.2,5.00,0.00,21.8,20.5,00.0,30.8,23.5,13.5,0000.0,0000.98,0002.02,0000.49
2023-02-21 05:29:00,,0816.3,4.97,0.00,21.9,21.9,00.0,30.7,23.9,13.4,0000.0,0001.01,0002.07,0000.49
2023-02-21 05:30:00,,0816.2,5.01,0.00,22.1,22.9,00.0,30.7,24.2,13.2,0000.0,0000.98,0001.98,0000.49
2023-02-21 05:31:00,,0816.1,5.00,0.00,22.1,22.5,00.0,30.8,24.1,13.2,0000.0,0000.94,0001.88,0000.49
2023-02-21 05:32:00,,0816.1,4.98,0.00,22.1,21.8,00.0,30.9,23.9,13.3,0000.0,0000.97,0002.09,0000.49
2023-02-21 05:33:00,,0815.9,4.99,0.00,22.1,21.4,00.0,30.9,23.8,13.3,0000.0,0000.96,0002.06,0000.50
2023-02-21 05:34:00,,0816.0,5.00,0.00,22.0,21.0,00.0,30.9,23.7,13.4,0000.0,0000.91,0002.01,0000.50
2023-02-21 05:35:00,,0815.8,5.00,0.00,22.0,20.7,00.0,30.9,23.7,13.5,0000.0,0000.90,0003.22,0000.52
2023-02-21 05:36:00,,0815.7,5.00,0.00,22.0,20.6,00.0,30.9,23.6,13.5,0000.0,0000.87,0003.07,0000.53
2023-02-21 05:37:00,,0815.8,5.00,0.00,22.0,20.5,00.0,30.9,23.6,13.5,0000.0,0000.88,0003.54,0000.54
2023-02-21 05:38:00,,0815.9,5.00,0.00,21.9,20.5,00.0,30.9,23.6,13.6,0000.0,0000.90,0004.11,0000.55
2023-02-21 05:39:00,,0815.5,5.01,0.00,21.9,20.4,00.0,30.9,23.5,13.5,0000.0,0000.88,0004.07,0000.55
2023-02-21 05:40:00,,0815.6,5.00,0.00,21.9,20.3,00.0,30.9,23.5,13.5,0000.0,0000.94,0004.29,0000.55
2023-02-21 05:41:00,,0815.6,4.99,0.00,21.9,20.2,00.0,30.9,23.5,13.4,0000.0,0000.95,0004.38,0000.56
2023-02-21 05:42:00,,0815.4,5.00,0.00,21.9,20.2,00.0,30.9,23.5,13.4,0000.0,0000.96,0004.40,0000.56
2023-02-21 05:43:00,,0815.3,4.99,0.00,21.8,20.2,00.0,30.9,23.4,13.5,0000.0,0000.97,0004.30,0000.56
2023-02-21 05:44:00,,0815.2,5.01,0.00,21.8,20.1,00.0,30.8,23.4,13.5,0000.0,0000.97,0004.21,0000.57
2023-02-21 05:45:00,,0815.2,4.99,0.00,21.8,20.1,00.0,30.8,23.3,13.6,0000.0,0000.96,0004.18,0000.57
2023-02-21 05:46:00,,0815.3,5.00,0.00,21.7,20.1,00.0,30.8,23.3,13.5,0000.0,0000.99,0003.15,0000.57
2023-02-21 05:47:00,,0815.1,5.02,0.00,21.8,21.0,00.0,30.7,23.6,13.4,0000.0,0000.97,0002.85,0000.56
2023-02-21 05:48:00,,0815.2,5.01,0.00,21.9,22.2,00.0,30.7,23.9,13.3,0000.0,0000.95,0002.62,0000.55
2023-02-21 05:49:00,,0815.2,5.04,0.00,22.1,22.8,00.0,30.7,24.2,13.2,0000.0,0000.89,0001.78,0000.53
2023-02-21 05:50:00,,0815.0,4.98,0.00,22.1,22.3,00.0,30.8,24.0,13.2,0000.0,0000.88,0001.75,0000.53
2023-02-21 05:51:00,,0815.1,5.00,0.00,22.1,21.8,00.0,30.9,23.9,13.2,0000.0,0000.82,0001.50,0000.53
2023-02-21 05:52:00,,0815.0,5.00,0.00,22.1,21.4,00.0,30.9,23.9,13.2,0000.0,0000.82,0001.41,0000.54
2023-02-21 05:53:00,,0815.2,4.99,0.00,22.1,21.2,00.0,30.9,23.8,13.1,0000.0,0000.82,0001.39,0000.54
2023-02-21 05:54:00,,0815.2,5.00,0.00,22.1,21.0,00.0,30.9,23.8,13.2,0000.0,0000.81,0001.39,0000.54
2023-02-21 05:55:00,,0815.2,5.00,0.00,22.0,20.8,00.0,30.9,23.7,13.2,0000.0,0000.82,0001.43,0000.53
2023-02-21 05:56:00,,0815.2,5.01,0.00,22.0,20.6,00.0,30.9,23.7,13.2,0000.0,0000.85,0001.52,0000.53
2023-02-21 05:57:00,,0815.1,5.01,0.00,22.0,20.5,00.0,30.9,23.6,13.2,0000.0,0000.79,0001.39,0000.52
2023-02-21 05:58:00,,0815.0,5.01,0.00,22.0,20.3,00.0,30.9,23.6,13.3,0000.0,0000.81,0001.50,0000.53
2023-02-21 05:59:00,,0814.9,4.99,0.00,21.9,20.2,00.0,30.9,23.5,13.3,0000.0,0000.84,0001.54,0000.54
